Location: Stoke Bliss
(52.2667°N, 2.5167°W)
Time: 14:33:59
(UTC+00:00)

COSMO-SKYMED 1 - Pass Details

Date: 03 March 2021
Orbit: 621 x 623 km, 97.9° (Epoch: 13 April)

Event Time Altitude Azimuth Distance (km) Brightness Sun altitude
Rises 19:18:21 0° 8° (N) 2,920 6.0 -13.8°
Reaches altitude 10° 19:20:41 10° 359° (N) 2,008 5.3 -14.1°
Maximum altitude 19:24:38 34° 295° (WNW) 1,031 4.4 -14.7°
Drops below altitude 10° 19:28:33 10° 230° (SW) 1,993 5.7 -15.3°
Sets 19:30:52 0° 222° (SW) 2,895 6.5 -15.7°
